277P/LINEAR (2005)

Japanese version
Home page
Updated on January 19, 2013

---------------------------------------------------------------------

* Profile

Designation 277P/2005 YQ127
Discovery Date December 28, 2005
Magnitude 18.0 mag
Discoverer Lincoln Laboratory Near-Earth Asteroid Research project

* Pictures

* Orbital Elements

Epoch 2005 Nov. 6.0 TT = JDT 2453680.5
T 2005 Nov. 3.96383 TT                                  MPC
q   1.9190782            (2000.0)            P               Q
n   0.12961704     Peri.  152.30625     +0.34397097     -0.89436629
a   3.8668854      Node   276.37790     +0.79951434     +0.43868785
e   0.5037147      Incl.   16.72484     +0.49240307     -0.08753231
P   7.60
From 160 observations 2005 Sept. 15-2013 Jan. 18, mean residual 0".6.

* Finding Charts

* Magnitudes Graph

        m1 = 10.5 + 5 log d + 20 log r

---------------------------------------------------------------------

The orbital elements are published on M.P.E.C. 2013-B18.
The charts are made with StellaNavigator Ver.2.0 for Windows (AstroArts / ASCII).
The magnitudes graphs are made with Comet for Windows.

---------------------------------------------------------------------

Copyright(C) Seiichi Yoshida (comet@aerith.net). All rights reserved.